Boulder Muni, Boulder, CO, CO

4:57 AM MDT on October 21, 2019 (GMT -0600)
Boulder Muni, Boulder, CO

Weather History for KBDU - August, 2019

Change the Weather History Date:

Saturday, August 17, 2019

  Actual Average Record
Temperature  
Mean Temperature 75 °F -  
Max Temperature 90 °F - 95 °F (2013)
Min Temperature 59 °F - 54 °F (2017)
Degree Days  
Heating Degree Days 0    
Month to date heating degree days 0  
Cooling Degree Days 10    
Month to date cooling degree days 167  
Growing Degree Days 24 (Base 50)    
Moisture  
Dew Point 36 °F    
Average Humidity 33    
Maximum Humidity 51    
Minimum Humidity 14    
Precipitation  
Precipitation 0.00 in - 0.04 in (2018)
Snow  
Snow 0.00 in - - ()
Snow Depth 0.00 in    
Sea Level Pressure  
Sea Level Pressure 29.94 in    
Wind  
Wind Speed 7 mph (WSW)    
Max Wind Speed 32 mph    
Max Gust Speed 43 mph    
Visibility 10 miles    
Events      
T = Trace of Precipitation, MM = Missing Value Source: NWS Daily Summary

Daily Weather History Graph

Daily Weather History Graph

Search for Another Location

Airport or City:

Astronomy

Aug. 17, 2019 Rise Set
Actual Time 6:14 AM MDT 7:55 PM MDT
Civil Twilight 5:45 AM MDT 8:23 PM MDT
Nautical Twilight 5:10 AM MDT 8:58 PM MDT
Astronomical Twilight 4:33 AM MDT 9:35 PM MDT
Moon 9:24 PM MDT (8/17) 8:05 AM MDT (8/17)
Length of Visible Light 14h 38m
Length of Day
13h 40m
Waning Gibbous, 96% of the Moon is Illuminated
Aug 17
Waning Gibbous
Aug 23
Last Quarter
Aug 30
New
Sep 5
First Quarter
Sep 13
Full

Hourly Weather History & Observations

Time (MDT) Temp. Dew Point Humidity Pressure Visibility Wind Dir Wind Speed Gust Speed Precip Events Conditions
12:12 AM 73.4 °F 33.8 °F 23% 29.98 in 10.0 mi SW 11.5 mph - N/A   Clear
12:30 AM 73.4 °F 33.8 °F 23% 29.98 in 10.0 mi WSW 10.4 mph - N/A   Clear
12:48 AM 73.4 °F 33.8 °F 23% 29.97 in 10.0 mi WSW 8.1 mph - N/A   Clear
1:12 AM 73.4 °F 33.8 °F 23% 29.97 in 10.0 mi WSW 5.8 mph - N/A   Clear
1:30 AM 71.6 °F 33.8 °F 25% 29.97 in 10.0 mi South 4.6 mph - N/A   Clear
1:48 AM 73.4 °F 33.8 °F 23% 29.96 in 10.0 mi SW 8.1 mph - N/A   Clear
2:12 AM 73.4 °F 33.8 °F 23% 29.95 in 10.0 mi WSW 6.9 mph - N/A   Clear
2:30 AM 73.4 °F 33.8 °F 23% 29.94 in 10.0 mi WSW 8.1 mph - N/A   Clear
2:48 AM 71.6 °F 33.8 °F 25% 29.94 in 10.0 mi WSW 6.9 mph - N/A   Clear
3:12 AM 71.6 °F 33.8 °F 25% 29.94 in 10.0 mi WSW 5.8 mph - N/A   Clear
3:30 AM 71.6 °F 33.8 °F 25% 29.94 in 10.0 mi WSW 4.6 mph - N/A   Clear
3:48 AM 68.0 °F 33.8 °F 28% 29.95 in 10.0 mi Calm Calm - N/A   Clear
4:12 AM 68.0 °F 33.8 °F 28% 29.95 in 10.0 mi Calm Calm - N/A   Clear
4:30 AM 62.6 °F 37.4 °F 39% 29.95 in 10.0 mi Calm Calm - N/A   Clear
4:48 AM 62.6 °F 35.6 °F 37% 29.94 in 10.0 mi Calm Calm - N/A   Clear
5:12 AM 60.8 °F 37.4 °F 42% 29.95 in 10.0 mi North 5.8 mph - N/A   Clear
5:29 AM 60.8 °F 37.4 °F 42% 29.94 in 10.0 mi Calm Calm - N/A   Clear
5:53 AM 59.0 °F 41.0 °F 51% 29.95 in 10.0 mi NW 5.8 mph - N/A   Clear
6:13 AM 60.8 °F 37.4 °F 42% 29.96 in 10.0 mi NNW 4.6 mph - N/A   Clear
6:31 AM 62.6 °F 37.4 °F 39% 29.97 in 10.0 mi Calm Calm - N/A   Clear
6:49 AM 64.4 °F 37.4 °F 37% 29.97 in 10.0 mi West 6.9 mph - N/A   Clear
7:12 AM 66.2 °F 39.2 °F 37% 29.95 in 10.0 mi Calm Calm - N/A   Scattered Clouds
7:30 AM 64.4 °F 41.0 °F 42% 29.95 in 10.0 mi Calm Calm - N/A   Clear
7:54 AM 66.2 °F 44.6 °F 46% 29.96 in 10.0 mi SE 3.5 mph - N/A   Clear
8:12 AM 64.4 °F 41.0 °F 42% 29.96 in 10.0 mi Calm Calm - N/A   Clear
8:30 AM 68.0 °F 42.8 °F 40% 29.96 in 10.0 mi Calm Calm - N/A   Clear
8:54 AM 68.0 °F 42.8 °F 40% 29.96 in 10.0 mi NE 3.5 mph - N/A   Clear
9:12 AM 71.6 °F 37.4 °F 29% 29.96 in 10.0 mi Calm Calm - N/A   Clear
9:30 AM 71.6 °F 42.8 °F 35% 29.96 in 10.0 mi Calm Calm - N/A   Clear
9:54 AM 73.4 °F 37.4 °F 27% 29.96 in 10.0 mi South 3.5 mph - N/A   Clear
10:12 AM 78.8 °F 37.4 °F 23% 29.94 in 10.0 mi Calm Calm - N/A   Clear
10:30 AM 80.6 °F 35.6 °F 20% 29.95 in 10.0 mi SSE 3.5 mph - N/A   Clear
10:48 AM 82.4 °F 37.4 °F 20% 29.94 in 10.0 mi ESE 6.9 mph - N/A   Clear
11:30 AM 87.8 °F 35.6 °F 16% 29.94 in 10.0 mi ENE 5.8 mph - N/A   Clear
11:48 AM 87.8 °F 35.6 °F 16% 29.93 in 10.0 mi ENE 4.6 mph - N/A   Clear
12:30 PM 87.8 °F 33.8 °F 15% 29.92 in 10.0 mi NW 8.1 mph - N/A   Clear
12:48 PM 86.0 °F 33.8 °F 15% 29.91 in 10.0 mi North 8.1 mph - N/A   Clear
1:12 PM 86.0 °F 33.8 °F 15% 29.89 in 10.0 mi WSW 6.9 mph - N/A   Clear
1:30 PM 89.6 °F 35.6 °F 15% 29.87 in 10.0 mi South 5.8 mph - N/A   Clear
1:48 PM 89.6 °F 35.6 °F 15% 29.87 in 10.0 mi East 5.8 mph - N/A   Clear
2:12 PM 86.0 °F 39.2 °F 19% 29.88 in 10.0 mi NNE 10.4 mph 16.1 mph N/A   Clear
2:30 PM 82.4 °F 39.2 °F 21% 29.90 in 10.0 mi North 9.2 mph - N/A   Clear
2:48 PM 82.4 °F 37.4 °F 20% 29.89 in 10.0 mi North 11.5 mph - N/A   Clear
3:12 PM 80.6 °F 39.2 °F 23% 29.89 in 10.0 mi NE 6.9 mph - N/A   Clear
3:30 PM 82.4 °F 41.0 °F 23% 29.90 in 10.0 mi North 10.4 mph - N/A   Clear
3:48 PM 78.8 °F 41.0 °F 26% 29.92 in 10.0 mi WNW 32.2 mph 42.6 mph N/A   Scattered Clouds
4:12 PM 78.8 °F 33.8 °F 20% 29.91 in 10.0 mi West 11.5 mph 26.5 mph N/A   Scattered Clouds
4:30 PM 84.2 °F 33.8 °F 16% 29.89 in 10.0 mi West 9.2 mph - N/A   Clear
4:48 PM 86.0 °F 33.8 °F 15% 29.88 in 10.0 mi WNW 5.8 mph - N/A   Clear
5:12 PM 87.8 °F 32.0 °F 14% 29.89 in 10.0 mi West 12.7 mph 20.7 mph N/A   Clear
5:30 PM 89.6 °F 33.8 °F 14% 29.89 in 10.0 mi SW 13.8 mph 19.6 mph N/A   Clear
5:48 PM 86.0 °F 32.0 °F 14% 29.90 in 10.0 mi WSW 15.0 mph 24.2 mph N/A   Clear
6:08 PM 84.2 °F 32.0 °F 15% 29.90 in 10.0 mi SW 12.7 mph 18.4 mph N/A   Clear
6:32 PM 86.0 °F 32.0 °F 14% 29.89 in 10.0 mi WSW 9.2 mph 21.9 mph N/A   Clear
6:50 PM 84.2 °F 32.0 °F 15% 29.89 in 10.0 mi Calm Calm - N/A   Clear
7:12 PM 84.2 °F 33.8 °F 16% 29.90 in 10.0 mi WSW 5.8 mph - N/A   Clear
7:30 PM 80.6 °F 33.8 °F 18% 29.90 in 10.0 mi NE 3.5 mph - N/A   Clear
7:48 PM 78.8 °F 35.6 °F 21% 29.91 in 10.0 mi ENE 5.8 mph - N/A   Clear
8:12 PM 77.0 °F 35.6 °F 22% 29.93 in 10.0 mi East 4.6 mph - N/A   Clear
8:30 PM 77.0 °F 33.8 °F 21% 29.94 in 10.0 mi ENE 8.1 mph - N/A   Clear
8:48 PM 75.2 °F 35.6 °F 24% 29.95 in 10.0 mi NNE 3.5 mph - N/A   Clear
9:12 PM 73.4 °F 37.4 °F 27% 30.00 in 10.0 mi WNW 9.2 mph - N/A   Clear
9:30 PM 77.0 °F 37.4 °F 24% 30.00 in 10.0 mi West 10.4 mph - N/A   Clear
9:48 PM 77.0 °F 35.6 °F 22% 29.98 in 10.0 mi SW 9.2 mph - N/A   Clear
10:12 PM 77.0 °F 35.6 °F 22% 29.95 in 10.0 mi SSW 6.9 mph - N/A   Clear
10:30 PM 77.0 °F 33.8 °F 21% 29.96 in 10.0 mi SW 8.1 mph - N/A   Clear
10:48 PM 77.0 °F 33.8 °F 21% 29.97 in 10.0 mi South 3.5 mph - N/A   Clear
11:12 PM 75.2 °F 33.8 °F 22% 29.97 in 10.0 mi Calm Calm - N/A   Clear
11:30 PM 75.2 °F 33.8 °F 22% 29.97 in 10.0 mi SW 4.6 mph - N/A   Clear
11:53 PM 71.6 °F 37.4 °F 29% 29.98 in 10.0 mi West 5.8 mph - N/A   Clear